Regional Weather Roundup
Issued by NWS

Home | Current Version | Previous Version | Graphics & Text | Print | Product List | Glossary On
Versions: 1 2 3 4 5 6 7 8 9 10 11 12 13 14 15 16 17 18 19 20 21 22 23 24 25 26 27
000
ASUS45 KCYS 270310
RWRWY

WYOMING REGIONAL WEATHER ROUNDUP
NATIONAL WEATHER SERVICE CHEYENNE WY
900 PM MDT MON JUN 26 2017

NOTE:  "FAIR" INDICATES FEW OR NO CLOUDS BELOW 12,000 FEET
WITH NO SIGNIFICANT WEATHER AND/OR OBSTRUCTIONS TO VISIBILITY.

WYZ001-270400-
YELLOWSTONE NATIONAL PARK

CITY           SKY/WX    TMP DP  RH WIND       PRES   REMARKS
LK YELLOWSTONE   N/A     61  40  45 CALM      30.19F
W YELLOWSTONE  NOT AVBL

$$
WYZ002>013-054>058-071-098>099-270400-
NORTHERN WYOMING

CITY           SKY/WX    TMP DP  RH WIND       PRES   REMARKS
JACKSON        FAIR      70  48  46 E3        30.07F
CODY           FAIR      78  31  17 W6        29.92S
GREYBULL       FAIR      85  26  11 E7        29.81F
WORLAND        FAIR      78  31  17 SE10      29.84F
SHERIDAN       FAIR      73  51  46 CALM      29.87F
BUFFALO        FAIR      72  44  36 W8        29.96F
GILLETTE       FAIR      75  41  29 SE17      29.95F
NEWCASTLE      FAIR      70  36  28 SE14      30.03S

$$
WYZ014>020-022>026-101>103-270400-
CENTRAL WYOMING

CITY           SKY/WX    TMP DP  RH WIND       PRES   REMARKS
BIG PINEY      FAIR      68  37  32 E5        30.14S
PINEDALE       FAIR      70  36  28 CALM      30.15S
DUBOIS         FAIR      68  32  26 W17       30.11F
LANDER         FAIR      75  40  28 SW8       30.00R
RIVERTON       FAIR      76  31  19 W8        29.98F
CASPER         FAIR      75  44  33 E12       29.99F
DOUGLAS        FAIR      73  42  32 SE16      30.04F

$$
WYZ021-027>030-104>119-270400-
SOUTHERN WYOMING

CITY           SKY/WX    TMP DP  RH WIND       PRES   REMARKS
EVANSTON       FAIR      77  32  19 CALM      30.13F
KEMMERER         N/A     73  30  20 S6        30.16F
FORT BRIDGER   FAIR      71  37  29 S10       30.17S
ROCK SPRINGS   FAIR      72  30  21 SW14      30.12F
DIXON          FAIR      72  29  20 W10G18    30.15R
RAWLINS        FAIR      77  22  13 S16       30.13S
SARATOGA       FAIR      70  21  16 SW8       30.15F
LARAMIE        FAIR      67  36  31 SE16      30.19F
CHEYENNE       FAIR      70  47  43 SE15      30.16S
TORRINGTON     FAIR      74  40  29 SE16      30.04S
PINE BLUFFS    FAIR      68  52  56 SE15G22   30.12F

$$




USA.gov is the U.S. government's official web portal to all federal, state and local government web resources and services.